Wind_Speed
7 7 7 8 7 7 8 8 8 8 8 8 9 9 9 10 10 10 10 9 9 10 11 11 12 13 13 12 13 12 11 11 12 12 12 13 13 13 13 12 11 11 10
7 7 7 7 7 7 7 8 8 8 7 8 9 9 9 10 11 10 10 10 10 10 11 11 12 13 13 13 12 12 12 12 12 13 13 13 13 13 13 13 12 12 12
6 6 6 6 6 7 7 7 8 8 8 8 8 8 9 9 10 11 11 11 11 11 11 11 12 11 11 11 12 12 12 12 12 12 12 13 13 13 13 13 13 13 13
6 6 6 6 6 7 7 8 8 8 8 8 8 8 8 9 10 10 10 11 11 11 11 11 11 10 10 11 12 11 11 11 12 12 12 12 13 13 13 13 13 13 13
6 6 6 6 7 7 7 7 7 7 7 7 8 8 8 9 9 10 10 10 10 10 10 9 9 9 9 10 10 10 11 11 12 12 12 12 13 13 13 13 14 14 14
6 6 6 6 6 6 6 6 6 7 7 8 8 8 8 8 8 9 9 9 10 9 9 10 9 9 9 9 10 10 10 11 11 11 11 12 13 13 13 14 13 13 14
6 6 6 6 6 7 7 6 7 7 7 7 7 8 8 8 7 8 9 9 10 10 9 10 10 10 9 9 10 10 11 11 11 11 12 13 12 13 13 13 14 14 14
5 5 5 5 6 6 7 7 7 7 7 7 8 8 8 7 7 7 7 8 9 9 9 9 10 10 10 10 10 10 10 11 11 12 12 12 12 13 14 13 13 14 14
5 5 5 5 5 5 6 6 6 6 7 7 7 8 8 7 6 7 7 7 8 8 7 8 8 8 9 10 10 10 11 11 10 11 12 12 13 13 14 13 13 13 14
5 5 6 5 5 5 5 5 6 6 6 6 6 7 6 7 7 7 7 7 7 7 7 7 8 8 9 10 10 10 11 10 10 11 11 11 12 12 13 13 13 13 14
5 5 5 5 5 6 6 6 6 7 7 7 7 7 6 6 6 7 7 7 7 7 7 8 8 8 9 9 10 11 10 10 11 11 11 11 11 11 12 12 12 12 13
5 5 5 6 6 6 7 7 7 8 7 7 7 7 7 7 6 7 7 7 7 7 7 7 7 8 8 9 10 11 12 11 11 10 11 11 11 11 11 11 11 11 12
6 6 6 6 7 7 7 8 8 8 8 9 8 8 8 8 8 7 7 7 7 7 7 7 8 8 9 9 10 10 10 11 11 11 12 11 11 12 12 12 12 12 12
7 7 7 7 7 8 8 8 9 9 9 10 9 9 9 9 9 8 8 8 8 8 7 8 8 9 9 10 10 10 11 11 11 12 11 11 12 13 13 13 14 13 13
9 8 8 8 9 9 9 9 9 10 10 10 10 10 10 10 9 9 9 8 8 8 8 9 9 9 10 10 10 11 11 11 11 12 12 12 13 13 14 14 15 15 15
10 10 10 10 10 10 10 10 10 11 11 10 10 10 10 9 9 9 9 9 9 9 9 9 10 10 10 10 10 10 11 12 12 12 12 13 14 14 15 15 16 16 16
12 12 12 12 12 11 11 11 11 11 10 10 9 10 10 9 9 9 9 9 9 10 10 11 12 12 12 11 12 12 12 12 13 13 14 14 15 16 16 16 16 17 17
14 13 13 13 13 13 12 12 12 11 11 10 10 10 9 9 9 9 9 9 10 11 12 11 12 13 13 13 13 14 14 14 14 15 15 15 15 16 16 16 17 17 18
15 15 15 14 14 14 14 14 13 12 12 11 11 11 10 10 10 10 10 11 11 12 12 12 12 13 13 14 14 15 15 15 15 16 15 15 16 16 16 17 18 18 18
16 16 16 16 16 15 15 15 14 13 13 12 12 12 12 12 12 12 12 12 12 12 12 13 13 14 15 15 15 16 16 16 16 17 16 16 16 17 17 18 18 19 19
18 17 17 17 17 16 16 16 15 15 14 14 14 13 13 13 13 13 14 14 14 14 14 14 14 15 15 15 16 16 16 16 17 17 17 17 18 18 19 19 20 20 21
19 18 18 17 17 17 17 16 16 16 16 15 15 15 14 14 14 14 15 15 15 15 15 16 16 16 17 17 17 18 18 18 18 19 19 19 19 19 20 20 21 22 23
20 19 19 18 18 18 18 18 17 17 17 16 16 16 16 16 16 16 17 17 17 18 18 18 18 18 18 19 19 20 20 20 20 21 22 22 22 22 21 21 22 24 25
21 20 20 19 20 20 19 19 19 19 18 18 18 18 18 18 18 18 19 19 19 19 20 20 19 20 20 20 21 21 22 22 22 23 24 24 24 25 25 25 25 26 27
21 21 21 21 21 21 21 21 21 21 20 20 20 20 20 20 20 20 20 21 21 21 21 21 22 22 23 23 23 23 23 23 24 24 25 26 26 26 27 27 28 28 29
22 22 22 22 22 22 22 22 22 22 22 22 22 22 22 22 22 22 22 22 22 22 23 23 23 24 25 25 25 26 26 26 26 26 27 28 28 29 29 29 29 29 29
Wind_Direction
287 282 277 272 270 271 271 273 266 262 262 256 258 258 259 253 250 250 250 254 256 256 259 261 264 266 266 265 261 256 255 259 264 267 268 269 270 269 266 264 262 262 264
294 288 281 271 268 270 271 271 272 271 271 264 260 259 255 254 254 254 255 253 255 259 261 265 267 267 262 261 259 257 259 264 264 267 268 269 268 267 264 261 262 262 263
291 286 280 274 272 275 275 272 269 268 268 269 268 265 257 255 258 256 255 256 258 263 265 266 268 266 258 254 258 256 260 263 263 266 267 267 266 264 262 263 262 262 262
288 286 278 275 274 276 279 277 273 269 267 268 270 269 264 261 262 259 258 258 260 263 264 267 267 264 259 256 255 257 260 262 263 265 267 266 264 261 262 264 264 264 263
286 283 281 277 274 276 280 277 273 274 271 269 267 268 268 265 259 260 263 264 265 268 269 268 269 268 258 257 260 263 261 263 264 265 265 265 265 263 263 265 265 266 266
282 279 280 280 280 280 280 279 277 276 274 273 271 269 267 266 264 263 264 267 269 268 265 264 263 265 260 262 265 265 265 264 264 263 263 265 266 265 267 268 268 268 270
279 273 275 277 278 279 278 279 278 279 280 281 277 273 271 267 268 269 268 269 269 265 264 262 261 260 261 266 267 267 267 264 264 263 264 265 266 267 270 271 268 269 271
284 281 279 280 279 279 278 278 280 280 281 280 278 279 275 270 271 270 272 275 275 274 268 265 260 257 260 265 267 265 265 265 263 265 266 267 267 267 269 271 271 272 271
289 285 283 286 288 285 283 281 284 285 283 281 279 278 271 264 268 266 267 268 271 270 268 271 267 265 268 267 264 265 266 267 266 265 266 267 269 269 268 269 272 274 272
287 286 286 285 287 289 293 293 293 290 289 284 283 281 273 268 266 268 267 268 270 271 268 267 268 269 268 268 263 262 266 267 265 265 265 267 270 271 272 271 273 277 276
288 286 286 283 286 289 292 293 295 295 292 288 287 286 280 275 271 270 271 270 271 270 269 267 271 271 267 269 269 267 267 266 262 263 265 269 271 274 275 275 278 278 279
288 283 280 283 285 289 289 289 290 290 288 284 286 283 281 278 274 273 270 270 273 274 275 275 276 277 275 275 271 270 269 267 266 265 266 268 269 272 276 278 282 282 279
289 281 277 280 280 282 285 285 288 288 285 283 282 279 279 275 272 273 269 268 269 272 277 276 277 278 281 281 278 274 271 269 267 267 267 268 267 271 275 279 280 281 280
287 281 276 280 280 280 282 284 284 286 285 283 282 278 276 273 269 270 266 268 273 275 274 275 276 281 282 281 281 280 275 272 269 268 270 271 271 272 274 277 276 278 279
282 279 276 276 276 279 282 284 284 285 286 282 278 277 276 273 267 267 264 267 269 270 273 276 278 283 285 283 285 286 281 278 276 275 274 274 276 276 275 274 274 275 275
281 279 277 276 275 277 280 280 282 283 284 283 279 278 276 270 267 265 261 264 267 268 269 274 277 280 283 285 289 289 287 281 280 279 277 275 275 277 274 273 273 274 274
277 275 276 275 275 276 277 278 280 280 281 280 278 277 274 268 267 262 260 264 267 270 269 271 274 277 280 282 283 285 285 284 282 281 280 279 277 278 277 276 275 275 274
273 272 273 274 272 274 274 274 277 277 277 276 276 276 271 269 266 264 265 268 270 272 271 272 274 276 278 281 283 283 283 283 283 283 284 283 281 280 278 275 274 274 274
272 270 270 271 271 272 272 271 272 274 273 273 274 273 268 267 266 268 271 271 271 275 274 272 273 274 277 282 285 285 284 281 281 283 283 284 282 281 280 278 275 274 274
269 269 269 268 269 269 269 269 269 268 268 267 270 271 270 268 266 269 273 274 275 275 274 275 277 279 281 284 285 285 283 280 279 281 282 283 283 283 282 279 275 275 276
268 267 267 266 267 267 266 266 267 267 266 266 268 270 270 267 267 269 270 271 274 275 277 278 281 281 283 284 286 284 282 281 281 280 278 277 278 280 281 279 278 279 279
267 268 265 264 264 264 264 265 264 264 264 264 266 267 268 266 266 269 271 271 273 276 277 278 279 281 282 284 285 284 282 282 282 280 278 278 279 280 281 281 281 281 281
265 264 263 263 262 263 264 264 265 265 264 265 265 266 268 268 268 270 272 271 273 276 277 279 281 282 282 282 283 282 282 281 281 281 279 279 278 279 281 283 283 283 282
264 263 263 263 262 264 265 265 265 265 265 265 264 265 266 268 271 272 272 273 275 276 276 277 280 281 281 282 282 281 280 279 279 279 279 279 279 279 280 281 283 283 283
262 263 264 263 262 262 262 262 264 264 264 265 266 267 268 270 271 272 272 273 274 275 276 278 279 280 281 282 283 282 282 280 279 278 279 279 280 281 281 281 282 283 284
262 263 263 263 263 261 261 261 262 263 264 265 266 267 269 270 271 271 271 273 275 276 276 278 279 280 281 282 282 282 281 281 280 279 279 280 281 281 282 283 283 283 283
Height
5844 5844 5843 5843 5843 5843 5843 5843 5843 5843 5843 5844 5844 5844 5844 5844 5844 5845 5845 5845 5845 5846 5846 5846 5845 5845 5845 5845 5846 5847 5847 5848 5848 5848 5848 5848 5848 5848 5848 5848 5848 5848 5848
5843 5842 5841 5841 5841 5841 5841 5841 5841 5841 5841 5842 5842 5842 5842 5842 5842 5842 5843 5843 5843 5843 5843 5843 5842 5841 5840 5841 5843 5844 5845 5845 5845 5845 5845 5845 5845 5845 5846 5846 5846 5846 5845
5841 5840 5840 5839 5839 5839 5839 5839 5839 5839 5839 5839 5839 5839 5840 5840 5840 5840 5840 5840 5840 5840 5840 5840 5839 5836 5835 5838 5840 5841 5841 5842 5842 5842 5842 5842 5842 5842 5842 5843 5843 5843 5843
5839 5838 5838 5838 5837 5837 5837 5837 5837 5837 5837 5837 5837 5837 5837 5837 5837 5838 5838 5838 5838 5838 5837 5837 5836 5835 5835 5836 5837 5838 5838 5839 5839 5839 5839 5839 5839 5840 5840 5840 5840 5840 5840
5837 5837 5836 5836 5835 5835 5835 5835 5835 5835 5835 5835 5835 5835 5835 5835 5835 5835 5835 5835 5835 5835 5835 5835 5834 5834 5834 5834 5835 5835 5835 5835 5836 5836 5836 5836 5836 5837 5837 5837 5837 5836 5836
5835 5835 5834 5834 5834 5834 5833 5833 5833 5833 5833 5832 5832 5832 5833 5833 5833 5833 5833 5832 5832 5832 5832 5832 5832 5832 5832 5832 5832 5832 5832 5833 5833 5833 5833 5833 5833 5833 5833 5833 5833 5833 5833
5833 5833 5833 5832 5832 5832 5832 5831 5831 5831 5830 5830 5830 5830 5830 5830 5830 5830 5830 5830 5830 5830 5830 5830 5830 5830 5830 5830 5830 5830 5830 5830 5830 5830 5830 5830 5830 5830 5830 5830 5830 5830 5829
5832 5831 5831 5831 5830 5830 5830 5829 5829 5829 5829 5829 5829 5828 5828 5829 5828 5828 5828 5828 5827 5827 5827 5827 5827 5827 5828 5828 5828 5827 5827 5827 5827 5827 5827 5827 5827 5827 5826 5826 5826 5826 5826
5830 5830 5829 5829 5829 5828 5828 5827 5827 5827 5827 5827 5826 5826 5826 5826 5826 5826 5826 5825 5825 5825 5825 5825 5825 5825 5825 5825 5825 5825 5824 5824 5824 5824 5824 5824 5823 5823 5823 5822 5822 5822 5822
5829 5828 5828 5827 5827 5827 5826 5826 5825 5825 5825 5824 5824 5824 5824 5824 5824 5824 5824 5824 5823 5823 5823 5823 5823 5822 5822 5822 5822 5822 5822 5821 5821 5821 5821 5820 5820 5820 5819 5819 5819 5818 5818
5827 5827 5826 5826 5826 5825 5825 5824 5824 5823 5823 5822 5822 5822 5821 5821 5821 5821 5821 5821 5821 5821 5821 5821 5820 5820 5820 5820 5820 5819 5819 5819 5818 5818 5818 5817 5817 5816 5816 5816 5815 5815 5814
5826 5825 5825 5824 5824 5824 5823 5823 5822 5822 5821 5821 5820 5820 5820 5819 5819 5819 5819 5819 5819 5819 5818 5818 5818 5818 5818 5817 5817 5817 5816 5816 5815 5815 5815 5814 5814 5813 5813 5813 5812 5811 5810
5824 5824 5823 5823 5822 5822 5821 5821 5820 5820 5819 5819 5818 5818 5817 5817 5817 5817 5817 5817 5817 5817 5816 5816 5816 5816 5815 5815 5814 5814 5813 5813 5813 5812 5812 5811 5811 5810 5810 5809 5808 5808 5807
5822 5821 5821 5821 5820 5820 5819 5818 5818 5817 5817 5816 5816 5815 5815 5815 5814 5814 5814 5814 5814 5814 5814 5814 5813 5813 5812 5812 5811 5811 5810 5810 5809 5809 5808 5808 5808 5807 5806 5806 5805 5804 5804
5820 5819 5819 5818 5818 5817 5816 5816 5815 5815 5814 5813 5813 5812 5812 5812 5811 5811 5811 5812 5812 5812 5812 5811 5811 5810 5810 5809 5809 5808 5807 5806 5806 5805 5805 5804 5804 5803 5803 5803 5802 5801 5800
5817 5816 5816 5815 5815 5814 5814 5813 5813 5812 5811 5811 5810 5810 5809 5809 5809 5809 5809 5809 5809 5810 5809 5809 5808 5808 5807 5806 5806 5805 5804 5803 5803 5802 5801 5801 5800 5799 5799 5798 5798 5797 5797
5813 5813 5812 5812 5812 5811 5811 5810 5809 5809 5808 5808 5807 5807 5807 5806 5806 5806 5806 5806 5806 5806 5806 5806 5805 5805 5804 5803 5803 5802 5801 5800 5799 5798 5797 5797 5796 5795 5794 5794 5793 5793 5792
5809 5809 5809 5808 5808 5807 5807 5807 5806 5806 5805 5805 5804 5804 5804 5804 5804 5803 5803 5803 5803 5803 5803 5803 5802 5801 5800 5800 5799 5798 5797 5796 5795 5794 5793 5792 5791 5791 5790 5789 5788 5788 5787
5805 5805 5804 5804 5804 5803 5803 5803 5803 5802 5802 5801 5801 5801 5801 5801 5801 5800 5800 5800 5800 5800 5799 5799 5799 5798 5797 5796 5795 5794 5793 5792 5791 5790 5789 5788 5787 5786 5785 5784 5784 5783 5782
5800 5800 5800 5800 5799 5799 5799 5799 5799 5799 5798 5798 5798 5798 5797 5797 5797 5797 5797 5797 5796 5796 5796 5796 5795 5794 5793 5792 5791 5790 5789 5788 5787 5786 5785 5784 5782 5781 5780 5779 5778 5777 5776
5795 5795 5795 5795 5795 5795 5795 5794 5794 5794 5794 5794 5794 5794 5794 5794 5794 5793 5793 5793 5793 5792 5792 5791 5791 5790 5789 5788 5787 5786 5785 5784 5783 5782 5780 5779 5778 5777 5775 5774 5773 5772 5771
5789 5789 5789 5790 5790 5790 5790 5790 5790 5790 5790 5790 5790 5790 5790 5790 5789 5789 5789 5789 5789 5788 5788 5787 5786 5785 5784 5783 5782 5781 5780 5779 5778 5777 5776 5774 5773 5772 5770 5769 5768 5766 5765
5783 5783 5784 5784 5784 5784 5785 5785 5785 5785 5785 5785 5785 5785 5785 5785 5785 5785 5784 5784 5784 5783 5783 5782 5781 5780 5779 5778 5777 5776 5774 5773 5772 5771 5770 5768 5767 5766 5764 5763 5761 5760 5758
5776 5777 5778 5778 5778 5779 5779 5779 5779 5780 5780 5780 5780 5780 5780 5780 5780 5779 5779 5778 5778 5777 5777 5776 5775 5774 5773 5772 5771 5770 5768 5767 5766 5764 5763 5762 5760 5759 5757 5756 5754 5752 5751
5770 5770 5771 5771 5772 5772 5773 5773 5773 5774 5774 5774 5774 5774 5774 5774 5774 5773 5773 5772 5772 5771 5770 5770 5769 5768 5766 5765 5764 5763 5762 5760 5758 5757 5755 5754 5753 5751 5749 5748 5746 5744 5742
5763 5763 5764 5764 5765 5765 5766 5766 5767 5767 5767 5768 5768 5768 5768 5767 5767 5766 5766 5766 5765 5765 5764 5763 5762 5761 5759 5758 5757 5755 5754 5752 5751 5749 5747 5746 5744 5742 5741 5739 5737 5735 5733